Miscellaneous Local Product
Issued by NWS Hastings, NE

Home | Current Version | Previous Version | Graphics & Text | Print | Product List | Glossary On
Versions: 1 2 3 4 5 6 7 8 9 10 11 12 13 14 15 16 17 18 19 20 21 22 23 24 25 26 27 28 29 30 31 32 33 34 35 36 37 38 39 40 41 42 43 44 45 46 47 48 49 50
967
AXUS43 KGID 010002
MISGRI

GID CWA HOURLY WEATHER ROUNDUP
NATIONAL WEATHER SERVICE HASTINGS NE
700 PM CDT FRI SEP 30 2016

NOTE: "FAIR" INDICATES FEW OR NO CLOUDS BELOW 12,000 FEET WITH NO
SIGNIFICANT WEATHER AND/OR OBSTRUCTIONS TO VISIBILITY.

...SOUTH CENTRAL NEBRASKA...

CITY           SKY/WX    TMP DP  RH WIND       PRES   REMARKS
GRAND ISLAND   MOCLDY    64  46  52 E5        30.16F
HASTINGS       PTCLDY    68  42  38 SE6       30.16F
KEARNEY        CLOUDY    66  41  39 SE6       30.15S
ORD            MOCLDY    64  42  44 SE5       30.15F
YORK           CLOUDY    64  46  52 E5        30.16F
AURORA         MOCLDY    64  48  55 E6        30.16S
LEXINGTON      MOCLDY    65  47  52 SE7       30.15F
HOLDREGE       PTCLDY    64  44  48 S6        30.16S
HEBRON         MOCLDY    66  48  52 CALM      30.15S

...NEBRASKA PANHANDLE...

CITY           SKY/WX    TMP DP  RH WIND       PRES   REMARKS
CHADRON        CLOUDY    71  47  42 S14       30.05F
ALLIANCE       CLOUDY    65  48  54 S8        30.11F
SCOTTSBLUFF    PTCLDY    66  49  54 SE9       30.11S
SIDNEY         PTCLDY    67  46  47 SE9       30.16S

...WESTERN AND NORTH CENTRAL NEBRASKA...

CITY           SKY/WX    TMP DP  RH WIND       PRES   REMARKS
VALENTINE      PTCLDY    67  46  47 S8        30.12S
AINSWORTH      MOCLDY    64  47  53 SE8       30.15S
ONEILL         CLOUDY    64  42  44 S5        30.17S
BROKEN BOW     PTCLDY    64  46  52 SE8       30.15F
IMPERIAL       PTCLDY    67  45  45 SE8       30.15R
NORTH PLATTE   PTCLDY    64  46  52 E8        30.15S
MCCOOK         PTCLDY    66  47  50 SE10      30.14S

...EASTERN NEBRASKA...

CITY           SKY/WX    TMP DP  RH WIND       PRES   REMARKS
NORFOLK        CLOUDY    64  43  46 SE6       30.16S
SO SIOUX CITY  CLEAR     69  47  45 E3        30.16S
TEKAMAH        CLEAR     65  47  52 E3        30.15S
COLUMBUS       PTCLDY    64  43  45 CALM      30.17F
ALBION         CLOUDY    65  47  50 SE3       30.17S
OMAHA EPPLEY   PTCLDY    68  50  52 E7        30.14F
OFFUTT AFB     CLEAR     62  54  76 N2        30.13F
MILLARD        CLEAR     65  53  65 CALM      30.15S
LINCOLN        PTCLDY    64  49  57 N5        30.16F
NEBRASKA CITY  CLOUDY    67  39  35 CALM      30.14S
BEATRICE       MOCLDY    68  47  47 CALM      30.15S
FALLS CITY     CLEAR     69  46  43 NE3       30.13S

...NORTHERN KANSAS...

CITY           SKY/WX    TMP DP  RH WIND       PRES   REMARKS
GOODLAND       CLEAR     70  46  42 SE10      30.13R
HILL CITY      PTCLDY    65  49  56 E7        30.14S
NORTON         CLEAR     64  43  45 E6        30.15S
PHILLIPSBURG   CLEAR     64  48  55 E3        30.15S
SMITH CENTER   CLEAR     63  46  55 CALM      30.16S
BELOIT           N/A     63  48  59 E6        30.13S
HAYS           PTCLDY    68  43  40 SE8       30.14S
RUSSELL        MOCLDY    69  46  43 SE8       30.13S
CONCORDIA      MOCLDY    67  51  56 NE5       30.15S
SALINA         PTCLDY    70  49  47 E6        30.14F
TOPEKA         CLEAR     65  54  67 CALM      30.13S



USA.gov is the U.S. government's official web portal to all federal, state and local government web resources and services.